Time,TemperatureF,DewpointF,PressureIn,WindDirection,WindDirectionDegrees,WindSpeedMPH,WindSpeedGustMPH,Humidity,HourlyPrecipIn,Conditions,Clouds,dailyrainin,SoftwareType,DateUTC
2013-04-06 00:18:00,52.6,29.0,29.72,SW,234,15.0,19.0,40,0.00,,,0.00,weatherlink.com 1.10,2013-04-06 06:18:00,
2013-04-06 00:33:00,52.6,27.0,29.72,SW,233,19.0,21.0,38,0.00,,,0.00,weatherlink.com 1.10,2013-04-06 06:33:00,
2013-04-06 00:48:00,53.1,28.0,29.73,SW,232,22.0,22.0,38,0.00,,,0.00,weatherlink.com 1.10,2013-04-06 06:48:00,
2013-04-06 01:03:00,53.0,28.0,29.73,SW,220,16.0,22.0,38,0.00,,,0.00,weatherlink.com 1.10,2013-04-06 07:03:00,
2013-04-06 01:18:00,52.3,29.0,29.73,SSW,211,16.0,21.0,41,0.00,,,0.00,weatherlink.com 1.10,2013-04-06 07:18:00,
2013-04-06 01:33:00,51.1,29.0,29.73,SW,230,9.0,13.0,43,0.00,,,0.00,weatherlink.com 1.10,2013-04-06 07:33:00,
2013-04-06 01:48:00,51.2,30.0,29.73,SW,229,11.0,17.0,44,0.00,,,0.00,weatherlink.com 1.10,2013-04-06 07:48:00,
2013-04-06 02:03:00,51.5,29.0,29.73,WSW,250,5.0,14.0,42,0.00,,,0.00,weatherlink.com 1.10,2013-04-06 08:03:00,
2013-04-06 02:18:00,51.3,29.0,29.74,SW,227,9.0,14.0,43,0.00,,,0.00,weatherlink.com 1.10,2013-04-06 08:18:00,
2013-04-06 02:33:00,50.9,30.0,29.73,WSW,250,9.0,16.0,45,0.00,,,0.00,weatherlink.com 1.10,2013-04-06 08:33:00,
2013-04-06 02:48:00,50.6,31.0,29.73,WSW,242,11.0,18.0,47,0.00,,,0.00,weatherlink.com 1.10,2013-04-06 08:48:00,
2013-04-06 03:03:00,50.1,31.0,29.73,WSW,252,7.0,16.0,48,0.00,,,0.00,weatherlink.com 1.10,2013-04-06 09:03:00,
2013-04-06 03:48:00,49.2,29.0,29.73,SW,234,7.0,15.0,46,0.00,,,0.00,weatherlink.com 1.10,2013-04-06 09:48:00,
2013-04-06 04:03:00,48.9,29.0,29.73,SSW,209,7.0,13.0,46,0.00,,,0.00,weatherlink.com 1.10,2013-04-06 10:03:00,
2013-04-06 04:18:00,47.9,29.0,29.73,SW,215,9.0,11.0,49,0.00,,,0.00,weatherlink.com 1.10,2013-04-06 10:18:00,
2013-04-06 04:33:00,48.1,30.0,29.73,SW,215,8.0,10.0,49,0.00,,,0.00,weatherlink.com 1.10,2013-04-06 10:33:00,
2013-04-06 04:49:00,48.2,30.0,29.73,West,270,8.0,15.0,49,0.00,,,0.00,weatherlink.com 1.10,2013-04-06 10:49:00,
2013-04-06 05:34:00,50.8,28.0,29.73,SW,232,9.0,14.0,41,0.00,,,0.00,weatherlink.com 1.10,2013-04-06 11:34:00,
2013-04-06 05:49:00,50.5,27.0,29.74,SW,214,7.0,14.0,41,0.00,,,0.00,weatherlink.com 1.10,2013-04-06 11:49:00,
2013-04-06 06:36:00,44.0,25.0,29.75,SW,214,0.0,7.0,48,0.00,,,0.00,weatherlink.com 1.10,2013-04-06 12:36:00,
2013-04-06 06:52:00,44.3,26.0,29.76,SW,214,2.0,8.0,48,0.00,,,0.00,weatherlink.com 1.10,2013-04-06 12:52:00,
2013-04-06 07:04:00,44.8,26.0,29.76,NNE,22,6.0,11.0,48,0.00,,,0.00,weatherlink.com 1.10,2013-04-06 13:04:00,
2013-04-06 07:19:00,44.8,27.0,29.76,NE,40,1.0,5.0,50,0.00,,,0.00,weatherlink.com 1.10,2013-04-06 13:19:00,
2013-04-06 07:49:00,45.4,28.0,29.77,NNE,28,2.0,8.0,50,0.00,,,0.00,weatherlink.com 1.10,2013-04-06 13:49:00,
2013-04-06 08:04:00,44.3,27.0,29.76,NNE,28,5.0,5.0,51,0.00,,,0.00,weatherlink.com 1.10,2013-04-06 14:04:00,
2013-04-06 08:19:00,44.9,28.0,29.77,NNE,29,2.0,4.0,51,0.00,,,0.00,weatherlink.com 1.10,2013-04-06 14:19:00,
2013-04-06 08:34:00,45.0,28.0,29.76,NNE,29,1.0,3.0,51,0.00,,,0.00,weatherlink.com 1.10,2013-04-06 14:34:00,
2013-04-06 08:49:00,45.4,28.0,29.76,NNE,29,5.0,6.0,51,0.00,,,0.00,weatherlink.com 1.10,2013-04-06 14:49:00,
2013-04-06 09:19:00,47.1,29.0,29.75,NNE,29,5.0,6.0,49,0.00,,,0.00,weatherlink.com 1.10,2013-04-06 15:19:00,
2013-04-06 09:34:00,48.3,28.0,29.75,NNE,29,2.0,4.0,46,0.00,,,0.00,weatherlink.com 1.10,2013-04-06 15:34:00,
2013-04-06 10:04:00,51.8,28.0,29.75,SSW,198,7.0,13.0,40,0.00,,,0.00,weatherlink.com 1.10,2013-04-06 16:04:00,
2013-04-06 10:19:00,52.2,28.0,29.75,South,186,14.0,14.0,39,0.00,,,0.00,weatherlink.com 1.10,2013-04-06 16:19:00,
2013-04-06 10:34:00,52.2,28.0,29.75,SSW,207,7.0,17.0,39,0.00,,,0.00,weatherlink.com 1.10,2013-04-06 16:34:00,
2013-04-06 10:49:00,52.8,28.0,29.75,SSW,194,9.0,14.0,38,0.00,,,0.00,weatherlink.com 1.10,2013-04-06 16:49:00,
2013-04-06 11:04:00,51.5,28.0,29.76,NNE,14,3.0,10.0,40,0.00,,,0.00,weatherlink.com 1.10,2013-04-06 17:04:00,
2013-04-06 11:19:00,51.1,29.0,29.76,NNE,29,6.0,10.0,43,0.00,,,0.00,weatherlink.com 1.10,2013-04-06 17:19:00,
2013-04-06 11:34:00,51.9,29.0,29.76,NNE,29,4.0,8.0,41,0.00,,,0.00,weatherlink.com 1.10,2013-04-06 17:34:00,
2013-04-06 11:49:00,53.2,29.0,29.76,NNE,29,3.0,5.0,39,0.00,,,0.00,weatherlink.com 1.10,2013-04-06 17:49:00,
2013-04-06 12:04:00,55.5,28.0,29.75,South,178,2.0,12.0,35,0.00,,,0.00,weatherlink.com 1.10,2013-04-06 18:04:00,
2013-04-06 12:19:00,56.4,27.0,29.74,SW,220,5.0,10.0,33,0.00,,,0.00,weatherlink.com 1.10,2013-04-06 18:19:00,
2013-04-06 12:34:00,57.1,28.0,29.74,SSW,205,9.0,19.0,33,0.00,,,0.00,weatherlink.com 1.10,2013-04-06 18:34:00,
2013-04-06 12:49:00,57.7,28.0,29.73,SW,215,11.0,19.0,32,0.00,,,0.00,weatherlink.com 1.10,2013-04-06 18:49:00,
2013-04-06 13:04:00,57.9,28.0,29.72,SW,228,12.0,19.0,32,0.00,,,0.00,weatherlink.com 1.10,2013-04-06 19:04:00,
2013-04-06 13:19:00,58.3,28.0,29.72,SSW,193,7.0,17.0,32,0.00,,,0.00,weatherlink.com 1.10,2013-04-06 19:19:00,
2013-04-06 13:34:00,59.0,28.0,29.71,WSW,255,18.0,25.0,31,0.00,,,0.00,weatherlink.com 1.10,2013-04-06 19:34:00,
2013-04-06 13:49:00,59.7,28.0,29.71,SW,232,11.0,18.0,30,0.00,,,0.00,weatherlink.com 1.10,2013-04-06 19:49:00,
2013-04-06 14:04:00,59.4,28.0,29.70,West,262,13.0,22.0,30,0.00,,,0.00,weatherlink.com 1.10,2013-04-06 20:04:00,
2013-04-06 14:19:00,58.6,29.0,29.70,WSW,253,17.0,28.0,32,0.00,,,0.00,weatherlink.com 1.10,2013-04-06 20:19:00,
2013-04-06 14:35:00,57.4,29.0,29.70,WSW,248,26.0,29.0,34,0.00,,,0.00,weatherlink.com 1.10,2013-04-06 20:35:00,
2013-04-06 14:49:00,57.3,29.0,29.68,West,260,10.0,29.0,34,0.00,,,0.00,weatherlink.com 1.10,2013-04-06 20:49:00,
2013-04-06 15:05:00,60.4,29.0,29.67,WSW,247,27.0,28.0,30,0.00,,,0.00,weatherlink.com 1.10,2013-04-06 21:05:00,
2013-04-06 15:20:00,59.9,30.0,29.68,WSW,242,22.0,34.0,32,0.00,,,0.00,weatherlink.com 1.10,2013-04-06 21:20:00,
2013-04-06 15:35:00,58.2,28.0,29.67,WSW,242,9.0,28.0,32,0.00,,,0.00,weatherlink.com 1.10,2013-04-06 21:35:00,
2013-04-06 15:50:00,59.0,28.0,29.67,SSW,212,13.0,22.0,31,0.00,,,0.00,weatherlink.com 1.10,2013-04-06 21:50:00,
2013-04-06 16:05:00,57.3,30.0,29.66,WSW,255,27.0,33.0,35,0.00,,,0.00,weatherlink.com 1.10,2013-04-06 22:05:00,
2013-04-06 16:20:00,57.8,28.0,29.67,WSW,257,14.0,24.0,32,0.00,,,0.00,weatherlink.com 1.10,2013-04-06 22:20:00,
2013-04-06 16:35:00,59.0,27.0,29.66,SW,219,14.0,22.0,30,0.00,,,0.00,weatherlink.com 1.10,2013-04-06 22:35:00,
2013-04-06 16:50:00,60.0,25.0,29.66,WNW,295,13.0,18.0,26,0.00,,,0.00,weatherlink.com 1.10,2013-04-06 22:50:00,
2013-04-06 17:20:00,59.7,27.0,29.66,NNE,12,7.0,12.0,29,0.00,,,0.00,weatherlink.com 1.10,2013-04-06 23:20:00,
2013-04-06 17:35:00,58.9,27.0,29.67,North,355,5.0,13.0,29,0.00,,,0.00,weatherlink.com 1.10,2013-04-06 23:35:00,
2013-04-06 17:50:00,58.6,26.0,29.68,North,355,0.0,5.0,29,0.00,,,0.00,weatherlink.com 1.10,2013-04-06 23:50:00,
2013-04-06 18:05:00,58.7,26.0,29.68,WNW,290,3.0,12.0,29,0.00,,,0.00,weatherlink.com 1.10,2013-04-07 00:05:00,
2013-04-06 18:20:00,57.1,31.0,29.68,WSW,250,17.0,27.0,37,0.00,,,0.00,weatherlink.com 1.10,2013-04-07 00:20:00,
2013-04-06 18:35:00,57.7,28.0,29.68,WNW,286,9.0,17.0,32,0.00,,,0.00,weatherlink.com 1.10,2013-04-07 00:35:00,
2013-04-06 18:50:00,57.9,25.0,29.68,WSW,257,8.0,27.0,28,0.00,,,0.00,weatherlink.com 1.10,2013-04-07 00:50:00,
2013-04-06 19:05:00,57.9,25.0,29.69,WNW,292,7.0,18.0,28,0.00,,,0.00,weatherlink.com 1.10,2013-04-07 01:05:00,
2013-04-06 19:20:00,56.3,29.0,29.69,SW,222,7.0,13.0,35,0.00,,,0.00,weatherlink.com 1.10,2013-04-07 01:20:00,
2013-04-06 19:35:00,55.1,29.0,29.69,SW,217,5.0,12.0,37,0.00,,,0.00,weatherlink.com 1.10,2013-04-07 01:35:00,
2013-04-06 19:50:00,54.7,29.0,29.69,SW,217,8.0,9.0,37,0.00,,,0.00,weatherlink.com 1.10,2013-04-07 01:50:00,
2013-04-06 20:20:00,54.2,26.0,29.70,SW,217,5.0,8.0,34,0.00,,,0.00,weatherlink.com 1.10,2013-04-07 02:20:00,
2013-04-06 20:35:00,53.0,28.0,29.70,SW,217,4.0,5.0,38,0.00,,,0.00,weatherlink.com 1.10,2013-04-07 02:35:00,
2013-04-06 20:50:00,52.8,28.0,29.72,SW,223,6.0,9.0,39,0.00,,,0.00,weatherlink.com 1.10,2013-04-07 02:50:00,
2013-04-06 21:05:00,52.3,31.0,29.72,West,262,8.0,13.0,45,0.00,,,0.00,weatherlink.com 1.10,2013-04-07 03:05:00,
2013-04-06 21:50:00,49.4,32.0,29.72,ENE,65,3.0,5.0,52,0.00,,,0.00,weatherlink.com 1.10,2013-04-07 03:50:00,
2013-04-06 22:05:00,48.7,33.0,29.72,ENE,65,4.0,5.0,54,0.00,,,0.00,weatherlink.com 1.10,2013-04-07 04:05:00,
2013-04-06 22:20:00,48.0,32.0,29.72,ENE,65,4.0,4.0,55,0.00,,,0.00,weatherlink.com 1.10,2013-04-07 04:20:00,
2013-04-06 22:35:00,48.3,33.0,29.72,ENE,65,5.0,7.0,55,0.00,,,0.00,weatherlink.com 1.10,2013-04-07 04:35:00,
2013-04-06 22:50:00,48.3,33.0,29.73,NNE,22,8.0,9.0,55,0.00,,,0.00,weatherlink.com 1.10,2013-04-07 04:50:00,
2013-04-06 23:05:00,47.6,32.0,29.72,North,351,8.0,8.0,56,0.00,,,0.00,weatherlink.com 1.10,2013-04-07 05:05:00,
2013-04-06 23:20:00,47.4,32.0,29.72,North,351,5.0,8.0,55,0.00,,,0.00,weatherlink.com 1.10,2013-04-07 05:20:00,
2013-04-06 23:35:00,46.1,31.0,29.73,North,351,3.0,5.0,57,0.00,,,0.00,weatherlink.com 1.10,2013-04-07 05:35:00,
2013-04-06 23:50:00,46.4,32.0,29.72,North,351,2.0,4.0,57,0.00,,,0.00,weatherlink.com 1.10,2013-04-07 05:50:00,